This is the latest recevied weather packets stored in our database for station/object KM7BEO. If no packets are shown the sender has not sent any weather packets the latest 10 day(s).
| Time | Temp. | Humidity | Pressure | Rain* | Wind** | Luminosity | Snow |
|---|---|---|---|---|---|---|---|
| 1777590416 | 17.78° C | 66% | 1017.3 hPa | 0 mm | - | 273 W/m² | - |
| 1777590113 | 17.78° C | 66% | 1017.5 hPa | 0 mm | - | 341 W/m² | - |
| 1777589809 | 17.22° C | 66% | 1017.5 hPa | 0 mm | - | 361 W/m² | - |
| 1777589504 | 17.22° C | 66% | 1017.6 hPa | 0 mm | - | 354 W/m² | - |
| 1777589204 | 17.22° C | 67% | 1017.6 hPa | 0 mm | - | 203 W/m² | - |
| 1777588900 | 17.78° C | 65% | 1017.8 hPa | 0 mm | - | 155 W/m² | - |
| 1777588597 | 17.22° C | 68% | 1017.7 hPa | 0 mm | - | 213 W/m² | - |
| 1777588297 | 17.22° C | 69% | 1017.9 hPa | 0 mm | - | 205 W/m² | - |
| 1777587992 | 17.22° C | 68% | 1017.9 hPa | 0 mm | - | 160 W/m² | - |
| 1777587689 | 16.67° C | 69% | 1017.8 hPa | 0 mm | - | 157 W/m² | - |
| 1777587388 | 16.67° C | 69% | 1017.8 hPa | 0 mm | - | 163 W/m² | - |
| 1777587085 | 17.22° C | 68% | 1017.9 hPa | 0 mm | - | 165 W/m² | - |
| 1777586781 | 16.67° C | 69% | 1018 hPa | 0 mm | - | 152 W/m² | - |
| 1777586476 | 16.67° C | 68% | 1018.1 hPa | 0 mm | - | 156 W/m² | - |
| 1777586171 | 16.67° C | 70% | 1018 hPa | 0 mm | - | 168 W/m² | - |
| 1777585869 | 16.67° C | 71% | 1017.8 hPa | 0 mm | - | 158 W/m² | - |
| 1777585564 | 16.67° C | 70% | 1018.1 hPa | 0 mm | - | 157 W/m² | - |
| 1777585260 | 16.67° C | 70% | 1018.3 hPa | 0 mm | - | 154 W/m² | - |
| 1777584955 | 16.67° C | 72% | 1018.2 hPa | 0 mm | - | 170 W/m² | - |
| 1777584653 | 16.11° C | 73% | 1018.4 hPa | 0 mm | - | 185 W/m² | - |
| 1777584349 | 16.11° C | 71% | 1018.4 hPa | 0 mm | - | 185 W/m² | - |
| 1777584045 | 16.67° C | 69% | 1018.5 hPa | 0 mm | - | 196 W/m² | - |
| 1777583740 | 17.22° C | 68% | 1018.2 hPa | 0 mm | - | 210 W/m² | - |
| 1777583439 | 17.78° C | 65% | 1018.3 hPa | 0 mm | - | 168 W/m² | - |
| 1777583139 | 17.78° C | 66% | 1018.4 hPa | 0 mm | - | 157 W/m² | - |
* Rain latest hour (hover to see other rain measurements)
** Current wind speed in m/s (hover to see current wind gust speed)